[[{"header":{"parameterUnit":"m.s-1","parameterCategory":1,"la1":30.2991,"la2":30.254,"lo1":-89.0895,"lo2":-89.0444,"dy":0.0017,"dx":0.0017,"nx":28,"ny":28,"refTime":"2024-06-11T03:00:00:Z","depth":0,"parameterNumber":2,"parameterNumberName":"U-component_of_WINDS"},"data":[0,0,0,0,0,0,0,0,0,0,0,0,0,0,0,0,0,0,0,0,0,0,0,0,0,0,0,0,0,0,0,0,0,0,0,0,0,0,0,0,0,0,0,0,0,0,0,0,0,0,0,0,0,0,0,0,0,0,-1.9895,-1.9896,0,-2.0009,-2.001,-2.0011,-1.9994,-1.9992,-1.999,-1.9989,-2.0105,-2.0109,-2.0114,0,0,0,0,0,0,0,0,0,0,0,0,0,-1.9662,-1.9666,-1.9895,-1.9896,-1.9897,-2.0008,-2.001,-2.0011,-1.9995,-1.9992,-1.999,-1.9988,-2.0103,-2.0109,-2.0115,0,0,0,0,0,0,0,0,0,0,0,0,0,-1.9768,-1.9667,-1.9894,-1.9902,-1.9904,-2.0008,-2.001,-2.0012,-1.9995,-1.9992,-1.9989,-1.9987,-2.0101,-2.0108,-2.0115,-2.0218,0,0,-2.0138,-2.0141,0,0,0,0,0,0,0,0,-1.9762,-1.9776,-1.99,-1.9902,-1.9904,-1.9984,-1.997,-2.0081,-1.9996,-1.9961,-1.9988,-1.9985,-2.0067,-2.0077,-2.0104,-2.0224,-2.0229,-2.0138,-2.0143,-2.0146,-2.0148,0,0,0,0,0,0,0,-1.9754,-1.9771,-1.994,-1.9902,-1.9904,-1.99,-1.9912,-1.9991,-2.0028,-1.9963,-1.9962,-1.9976,-2.0067,-2.0097,-2.0107,-2.023,-2.0138,-2.0145,-2.0149,-2.0152,-2.0439,-2.0443,0,0,0,0,0,0,-1.9745,-1.9765,-1.9936,-1.9943,-1.9825,-1.9907,-1.992,-1.9961,-2.0028,-2.0035,-1.9979,-1.9975,-2.0086,-2.0098,-2.0111,-2.0235,-2.0146,-2.0153,-2.0157,-2.0436,-2.044,-2.0444,0,0,0,0,0,0,-1.974,-1.976,-1.9931,-1.9854,-1.9875,-1.9914,-1.996,-1.9965,-1.9995,-2.0039,-2.0045,-2.0002,-2.0085,-2.0101,-2.0192,-2.0239,-2.0156,-2.0163,-2.0432,-2.0437,-2.0442,-2.0485,0,0,0,0,0,0,-1.9733,-1.9759,-1.9798,-1.9855,-1.988,-2.001,-1.9963,-1.997,-2.0008,-2.0004,-2.0063,-2.007,-2.0084,-2.0181,-2.0199,-2.0248,-2.0168,-2.0428,-2.0435,-2.044,-2.048,-2.0491,-2.0501,0,0,0,0,0,-1.9725,-1.9806,-1.98,-1.9821,-1.993,-2.0013,-2.0027,-2.0041,-2.0012,-2.0052,-2.008,-2.0068,-2.0231,-2.019,-2.0211,-2.0262,-2.0425,-2.0433,-2.044,-2.0475,-2.0489,-2.0501,0,0,0,0,0,0,-1.9753,-1.9813,-1.9808,-1.991,-1.9957,-2.001,-2.0061,-2.0056,-2.0112,-2.0106,-2.0121,-2.0134,-2.0226,-2.0254,-2.0207,-2.0365,-2.0324,-2.0336,-2.0344,-2.0358,-2.0368,-2.0359,-2.0174,0,0,0,0,0,-1.9771,-1.9834,-1.9883,-1.9968,-1.9992,-2.0023,-2.0059,-2.0066,-2.0115,-2.0135,-2.017,-2.0218,-2.028,-2.032,-2.038,-2.0484,-2.0496,-2.053,-2.054,-2.0548,-2.0558,-2.0615,-2.063,-2.0468,-2.0468,-2.0467,0,0,-1.9809,-1.985,-1.9889,-1.9975,-2.0012,-2.0076,-2.0039,-2.0109,-2.0157,-2.0146,-2.0233,-2.0261,-2.0315,-2.0413,-2.0458,-2.0439,-2.0606,-2.0558,-2.0564,-2.0569,-2.0624,-2.0639,-2.0653,-2.0473,-2.0472,-2.0471,0,0,-1.9911,-1.9948,-2.0023,-2.0061,-2.0118,-2.0138,-2.0156,-2.0211,-2.0229,-2.0317,-2.031,-2.0367,-2.0474,-2.0513,-2.0546,-2.0664,-2.0654,-2.0683,-2.0737,-2.0792,-2.0805,-2.0816,-2.0857,-2.0872,-2.0692,-2.0692,-2.0692,0,-1.9951,-2.0048,-2.0062,-2.0133,-2.0171,-2.0164,-2.0239,-2.0276,-2.0349,-2.0375,-2.0353,-2.0486,-2.0523,-2.0629,-2.0658,-2.0686,-2.0706,-2.0675,-2.0802,-2.0813,-2.0824,-2.0864,-2.0879,-2.0695,-2.0695,-2.0695,-2.0694,0,-2.0093,-2.0161,-2.0214,-2.0286,-2.033,-2.0402,-2.0427,-2.047,-2.0474,-2.0496,-2.0586,-2.063,-2.0698,-2.0724,-2.0727,-2.0831,-2.0817,-2.0798,-2.0757,-2.0843,-2.088,-2.0895,-2.07,-2.0699,-2.0698,-2.0697,0,0,-2.0215,-2.0294,-2.0313,-2.0345,-2.0408,-2.046,-2.0533,-2.0599,-2.0636,-2.0687,-2.0748,-2.0838,-2.0821,-2.086,-2.0868,-2.0916,-2.1006,-2.0891,-2.0893,-2.091,-2.1122,-2.1135,-2.1152,-2.1,-2.1003,-2.1006,-2.1117,0,-2.0322,-2.045,-2.0465,-2.0579,-2.0642,-2.0636,-2.07,-2.0745,-2.0768,-2.0823,-2.0849,-2.0912,-2.0885,-2.0908,-2.0956,-2.0985,-2.1048,-2.0977,-2.1056,-2.1059,-2.1042,-2.1172,-2.1186,-2.1289,-2.1132,-2.1134,-2.1136,0,-2.0464,-2.0519,-2.0639,-2.0693,-2.072,-2.0777,-2.0839,-2.0893,-2.0944,-2.0957,-2.1,-2.1002,-2.1077,-2.1034,-2.1136,-2.1087,-2.1121,-2.114,-2.1144,-2.1151,-2.1102,-2.1181,-2.1322,-2.1337,-2.1159,-2.1157,-2.1156,0,-2.0539,-2.0644,-2.073,-2.0757,-2.0823,-2.0863,-2.0892,-2.094,-2.0979,-2.1034,-2.1059,-2.1122,-2.1156,-2.1204,-2.1223,-2.119,-2.1325,-2.1283,-2.1337,-2.1337,-2.1365,-2.1362,-2.1511,-2.1388,-2.1388,-2.1388,-2.1388,0,-2.0657,-2.073,-2.0764,-2.0817,-2.0899,-2.0916,-2.0997,-2.1024,-2.1067,-2.1125,-2.1124,-2.1178,-2.12,-2.1257,-2.1273,-2.1355,-2.1371,-2.1383,-2.1386,-2.1383,-2.1381,-2.1404,-2.1397,-2.1392,-2.1391,-2.139,-2.139,0,-2.0754,-2.078,-2.0873,-2.0928,-2.0943,-2.1001,-2.1048,-2.1098,-2.1121,-2.1193,-2.1211,-2.1247,-2.1314,-2.1338,-2.142,-2.143,-2.1526,-2.1523,-2.1508,-2.1509,-2.1561,-2.1555,-2.1729,-2.1752,-2.1615,-2.1616,-2.1617,0,-2.0827,-2.0883,-2.0944,-2.0983,-2.1013,-2.1076,-2.1116,-2.1135,-2.1177,-2.1239,-2.1282,-2.1349,-2.1404,-2.1512,-2.1545,-2.1607,-2.1606,-2.1662,-2.1615,-2.1609,-2.1605,-2.1601,-2.1606,-2.1671,-2.1672,-2.1673,-2.1674,0,-2.0952,-2.0963,-2.1021,-2.1084,-2.1132,-2.1182,-2.1231,-2.1262,-2.1289,-2.1336,-2.1405,-2.1447,-2.1531,-2.1598,-2.1662,-2.1691,-2.1687,-2.1689,-2.1705,-2.1701,-2.1689,-2.1695,-2.1531,-2.1685,-2.1684,-2.1683,-2.1682,-2.1682,-2.1039,-2.1089,-2.114,-2.1204,-2.1243,-2.1289,-2.1339,-2.1368,-2.1426,-2.1496,-2.1504,-2.1578,-2.1628,-2.1714,-2.1746,-2.1804,-2.1789,-2.1812,-2.1817,-2.1822,-2.1825,-2.1681,-2.1816,-2.1816,-2.1816,-2.1816,-2.1815,0,-2.1163,-2.1196,-2.1256,-2.1324,-2.1375,-2.1368,-2.1421,-2.1464,-2.1529,-2.1576,-2.163,-2.171,-2.1774,-2.1812,-2.1877,-2.1916,-2.1916,-2.1932,-2.1929,-2.1936,-2.1836,-2.1816,-2.1932,-2.1932,-2.1931,-2.1931,-2.1931,-2.1931,-2.1234,-2.1318,-2.1334,-2.1437,-2.1469,-2.1542,-2.1573,-2.1615,-2.1653,-2.1741,-2.1795,-2.182,-2.1863,-2.1931,-2.199,-2.2,-2.2023,-2.2041,-2.2049,-2.1955,-2.1943,-2.1931,-2.1912,-2.2046,-2.2046,-2.2143,-2.2144,-2.2144]},{"header":{"parameterUnit":"m.s-1","parameterCategory":1,"la1":30.2991,"la2":30.254,"lo1":-89.0895,"lo2":-89.0444,"dy":0.0017,"dx":0.0017,"nx":28,"ny":28,"refTime":"2024-06-11T03:00:00:Z","depth":0,"parameterNumber":3,"parameterNumberName":"V-component_of_WINDS"},"data":[0,0,0,0,0,0,0,0,0,0,0,0,0,0,0,0,0,0,0,0,0,0,0,0,0,0,0,0,0,0,0,0,0,0,0,0,0,0,0,0,0,0,0,0,0,0,0,0,0,0,0,0,0,0,0,0,0,0,-3.2114,-3.2114,0,-3.2177,-3.2178,-3.2178,-3.2152,-3.215,-3.2149,-3.2147,-3.2208,-3.2211,-3.2214,0,0,0,0,0,0,0,0,0,0,0,0,0,-3.1965,-3.1968,-3.2114,-3.2114,-3.2115,-3.2177,-3.2178,-3.2179,-3.2152,-3.215,-3.2148,-3.2147,-3.2207,-3.221,-3.2214,0,0,0,0,0,0,0,0,0,0,0,0,0,-3.2029,-3.1969,-3.2114,-3.211,-3.211,-3.2177,-3.2178,-3.2179,-3.2152,-3.215,-3.2148,-3.2146,-3.2206,-3.221,-3.2215,-3.2288,0,0,-3.2228,-3.223,0,0,0,0,0,0,0,0,-3.2025,-3.2034,-3.2109,-3.211,-3.211,-3.2154,-3.2147,-3.2215,-3.2153,-3.2136,-3.2147,-3.2145,-3.2192,-3.2197,-3.2214,-3.2291,-3.2293,-3.2229,-3.2232,-3.2234,-3.2235,0,0,0,0,0,0,0,-3.2021,-3.2031,-3.2139,-3.211,-3.2111,-3.2103,-3.211,-3.216,-3.2176,-3.2137,-3.2136,-3.2144,-3.2191,-3.221,-3.2215,-3.2294,-3.2229,-3.2233,-3.2236,-3.2237,-3.2433,-3.2435,0,0,0,0,0,0,-3.2017,-3.2028,-3.2137,-3.214,-3.2062,-3.2107,-3.2115,-3.2142,-3.2175,-3.2178,-3.2146,-3.2142,-3.2203,-3.221,-3.2217,-3.2304,-3.2233,-3.2238,-3.224,-3.243,-3.2433,-3.2436,0,0,0,0,0,0,-3.2014,-3.2027,-3.2134,-3.2084,-3.2097,-3.2112,-3.2144,-3.2145,-3.2163,-3.2181,-3.2183,-3.2162,-3.2201,-3.2211,-3.227,-3.2306,-3.224,-3.2244,-3.2427,-3.2431,-3.2434,-3.2479,0,0,0,0,0,0,-3.201,-3.2026,-3.2055,-3.2085,-3.21,-3.2188,-3.2146,-3.2148,-3.2171,-3.2168,-3.2197,-3.22,-3.22,-3.2264,-3.2275,-3.2311,-3.2247,-3.2424,-3.2429,-3.2433,-3.2475,-3.2484,-3.2492,0,0,0,0,0,-3.2005,-3.2065,-3.2057,-3.207,-3.2137,-3.219,-3.2198,-3.2199,-3.2174,-3.2203,-3.2214,-3.2199,-3.23,-3.227,-3.2282,-3.232,-3.2422,-3.2428,-3.2433,-3.2471,-3.2482,-3.2492,0,0,0,0,0,0,-3.2038,-3.2069,-3.206,-3.2132,-3.2159,-3.2186,-3.2222,-3.2212,-3.2245,-3.224,-3.2238,-3.2245,-3.2306,-3.2319,-3.2285,-3.2392,-3.2357,-3.2365,-3.2382,-3.2393,-3.2401,-3.2396,-3.2251,0,0,0,0,0,-3.2054,-3.2096,-3.212,-3.2181,-3.2195,-3.2206,-3.2229,-3.2228,-3.2255,-3.2266,-3.2281,-3.2307,-3.2345,-3.2369,-3.2405,-3.2476,-3.2482,-3.2508,-3.2517,-3.2524,-3.2531,-3.2568,-3.258,-3.2454,-3.2454,-3.2454,0,0,-3.2087,-3.2109,-3.2135,-3.2188,-3.2209,-3.2251,-3.2216,-3.2262,-3.2293,-3.2272,-3.233,-3.2342,-3.237,-3.2436,-3.2466,-3.2449,-3.2567,-3.2531,-3.2537,-3.254,-3.2575,-3.2587,-3.2598,-3.2458,-3.2457,-3.2457,0,0,-3.2168,-3.219,-3.2242,-3.2264,-3.2296,-3.2303,-3.2315,-3.2344,-3.2351,-3.2409,-3.2394,-3.243,-3.2495,-3.2516,-3.2535,-3.2623,-3.2609,-3.2634,-3.2679,-3.2716,-3.2726,-3.2735,-3.2765,-3.2776,-3.2641,-3.2641,-3.2642,0,-3.2204,-3.2269,-3.227,-3.2318,-3.2341,-3.2325,-3.2378,-3.2398,-3.2439,-3.2455,-3.2435,-3.2516,-3.2534,-3.2604,-3.2625,-3.2641,-3.2654,-3.2631,-3.2725,-3.2733,-3.2742,-3.277,-3.2782,-3.2644,-3.2644,-3.2644,-3.2643,0,-3.2311,-3.2356,-3.2395,-3.2436,-3.2464,-3.2513,-3.2521,-3.2548,-3.2543,-3.2552,-3.261,-3.2631,-3.267,-3.2687,-3.2683,-3.2755,-3.2744,-3.2725,-3.2689,-3.2756,-3.2783,-3.2794,-3.2648,-3.2647,-3.2646,-3.2646,0,0,-3.2416,-3.2457,-3.2471,-3.249,-3.2523,-3.2557,-3.2605,-3.2645,-3.2667,-3.2696,-3.2735,-3.279,-3.2773,-3.2794,-3.2792,-3.2824,-3.2891,-3.2801,-3.2802,-3.2816,-3.2971,-3.2985,-3.2998,-3.2883,-3.2885,-3.2886,-3.2968,0,-3.2499,-3.2585,-3.2587,-3.2665,-3.2706,-3.2691,-3.2733,-3.2757,-3.2766,-3.28,-3.2809,-3.2848,-3.2822,-3.2835,-3.2866,-3.2877,-3.2922,-3.2871,-3.2917,-3.2919,-3.291,-3.3012,-3.3027,-3.3103,-3.2979,-3.2981,-3.2982,0,-3.2608,-3.2641,-3.2724,-3.2751,-3.2768,-3.2805,-3.2841,-3.2875,-3.2901,-3.2905,-3.2929,-3.2922,-3.2969,-3.2933,-3.2997,-3.2962,-3.2981,-3.2988,-3.2991,-3.2995,-3.2954,-3.3017,-3.3128,-3.3139,-3.2999,-3.2998,-3.2996,0,-3.2674,-3.2739,-3.2797,-3.2813,-3.2846,-3.2873,-3.2888,-3.2912,-3.2935,-3.2966,-3.2981,-3.3016,-3.3035,-3.3062,-3.3064,-3.3038,-3.3128,-3.3092,-3.3131,-3.3131,-3.315,-3.3149,-3.3264,-3.3164,-3.3164,-3.3164,-3.3164,0,-3.2766,-3.2817,-3.2827,-3.2863,-3.2918,-3.292,-3.2974,-3.2986,-3.3008,-3.3044,-3.3033,-3.3067,-3.3068,-3.3102,-3.3104,-3.3156,-3.3165,-3.3168,-3.3168,-3.3169,-3.3168,-3.318,-3.3175,-3.3167,-3.3166,-3.3166,-3.3165,0,-3.285,-3.2859,-3.292,-3.2947,-3.2955,-3.2995,-3.3017,-3.3049,-3.3057,-3.3103,-3.3113,-3.3125,-3.3165,-3.317,-3.3215,-3.3216,-3.3278,-3.3273,-3.327,-3.3269,-3.3307,-3.3303,-3.3434,-3.345,-3.334,-3.3341,-3.3342,0,-3.2907,-3.2946,-3.2977,-3.3001,-3.3018,-3.3057,-3.3081,-3.3083,-3.3108,-3.314,-3.3169,-3.3207,-3.3238,-3.3302,-3.3313,-3.3348,-3.3342,-3.3386,-3.3347,-3.3346,-3.3341,-3.3339,-3.3342,-3.3393,-3.3394,-3.3395,-3.3396,0,-3.3009,-3.3011,-3.3047,-3.3084,-3.3113,-3.3142,-3.3169,-3.3189,-3.3195,-3.3223,-3.3264,-3.3288,-3.3335,-3.3372,-3.3406,-3.3419,-3.3408,-3.3408,-3.3418,-3.3419,-3.3416,-3.3417,-3.3289,-3.3405,-3.3404,-3.3403,-3.3403,-3.3402,-3.308,-3.3114,-3.3141,-3.3181,-3.3201,-3.3227,-3.3259,-3.3271,-3.3306,-3.3345,-3.3344,-3.3388,-3.3412,-3.3457,-3.3472,-3.3506,-3.3491,-3.3507,-3.3511,-3.3514,-3.3518,-3.3411,-3.3512,-3.3512,-3.3512,-3.3511,-3.3511,0,-3.318,-3.3197,-3.3234,-3.3272,-3.3303,-3.3291,-3.332,-3.3346,-3.3386,-3.341,-3.3441,-3.3487,-3.3524,-3.3538,-3.3573,-3.3597,-3.3593,-3.3606,-3.3604,-3.3607,-3.3529,-3.3516,-3.3609,-3.3609,-3.3609,-3.3609,-3.3609,-3.3609,-3.3236,-3.3291,-3.3297,-3.3362,-3.3378,-3.3423,-3.344,-3.3463,-3.3482,-3.3534,-3.3565,-3.3575,-3.3594,-3.3631,-3.3663,-3.3666,-3.3679,-3.3695,-3.3695,-3.3623,-3.3613,-3.3603,-3.3591,-3.3698,-3.3698,-3.377,-3.3771,-3.3771]}]]